Location: Dunedin
(45.8670°S, 170.5000°E)
Time: 00:11:37
(UTC+13:00)

Elektron 1 - Pass Details

Date: 24 January 2019
Orbit: 410 x 6307 km, 60.9° (Epoch: 22 February)

Event Time Altitude Azimuth Distance (km) Brightness Sun altitude
Rises 22:20:57 0° 316° (NW) 3,947 8.7 -9.6°
Reaches altitude 10° 22:24:22 10° 314° (NW) 2,410 7.6 -10.0°
Maximum altitude 22:29:09 76° 227° (SW) 547 4.4 -10.6°
Drops below altitude 10° 22:32:13 10° 140° (SE) 1,551 6.7 -11.0°
Sets 22:33:59 0° 138° (SE) 2,387 7.6 -11.2°
